Time,TemperatureF,DewpointF,PressureIn,WindDirection,WindDirectionDegrees,WindSpeedMPH,WindSpeedGustMPH,Humidity,HourlyPrecipIn,Conditions,Clouds,dailyrainin,SoftwareType,DateUTC
2013-05-03 00:02:00,34.0,30.0,-100.00,North,0,12.0,18.0,84,0.00,,,0.00,,2013-05-03 05:02:00,
2013-05-03 00:12:00,34.0,30.0,-100.00,North,10,13.0,20.0,84,0.00,,,0.00,,2013-05-03 05:12:00,
2013-05-03 00:21:00,34.0,30.0,-100.00,North,10,12.0,17.0,85,0.00,,,0.00,,2013-05-03 05:21:00,
2013-05-03 00:32:00,33.0,30.0,-100.00,North,10,12.0,16.0,87,0.00,,,0.00,,2013-05-03 05:32:00,
2013-05-03 00:42:00,33.0,30.0,-100.00,North,10,9.0,14.0,88,0.00,,,0.00,,2013-05-03 05:42:00,
2013-05-03 00:52:00,33.0,30.0,-100.00,North,0,11.0,14.0,88,0.00,,,0.00,,2013-05-03 05:52:00,
2013-05-03 01:02:00,33.0,30.0,-100.00,North,5,11.0,14.0,88,0.00,,,0.00,,2013-05-03 06:02:00,
2013-05-03 01:11:00,33.0,30.0,-100.00,North,0,11.0,15.0,89,0.00,,,0.00,,2013-05-03 06:11:00,
2013-05-03 01:21:00,33.0,30.0,-100.00,North,10,11.0,15.0,90,0.00,,,0.00,,2013-05-03 06:21:00,
2013-05-03 01:32:00,33.0,30.0,-100.00,North,5,11.0,16.0,91,0.00,,,0.00,,2013-05-03 06:32:00,
2013-05-03 01:42:00,33.0,30.0,-100.00,North,10,11.0,16.0,92,0.00,,,0.00,,2013-05-03 06:42:00,
2013-05-03 01:51:00,32.0,30.0,-100.00,NNE,20,14.0,17.0,92,0.00,,,0.00,,2013-05-03 06:51:00,
2013-05-03 02:01:00,32.0,30.0,-100.00,NNE,15,15.0,18.0,92,0.00,,,0.00,,2013-05-03 07:01:00,
2013-05-03 02:11:00,32.0,30.0,-100.00,NNE,15,13.0,17.0,93,0.00,,,0.00,,2013-05-03 07:11:00,
2013-05-03 02:21:00,32.0,30.0,-100.00,NNE,20,12.0,17.0,94,0.00,,,0.00,,2013-05-03 07:21:00,
2013-05-03 02:31:00,32.0,30.0,-100.00,NNE,15,13.0,17.0,94,0.00,,,0.00,,2013-05-03 07:31:00,
2013-05-03 02:42:00,32.0,30.0,-100.00,North,10,12.0,17.0,94,0.00,,,0.00,,2013-05-03 07:42:00,
2013-05-03 02:52:00,31.0,30.0,-100.00,NNE,15,13.0,19.0,94,0.00,,,0.00,,2013-05-03 07:52:00,
2013-05-03 03:01:00,31.0,30.0,-100.00,NNE,20,14.0,19.0,94,0.00,,,0.00,,2013-05-03 08:01:00,
2013-05-03 03:11:00,31.0,30.0,-100.00,NNE,15,14.0,19.0,94,0.00,,,0.00,,2013-05-03 08:11:00,
2013-05-03 03:21:00,31.0,30.0,-100.00,North,10,15.0,20.0,94,0.00,,,0.00,,2013-05-03 08:21:00,
2013-05-03 03:32:00,31.0,30.0,-100.00,North,10,13.0,20.0,94,0.00,,,0.00,,2013-05-03 08:32:00,
2013-05-03 03:42:00,31.0,28.0,-100.00,NNE,20,15.0,19.0,94,0.00,,,0.00,,2013-05-03 08:42:00,
2013-05-03 03:52:00,30.0,28.0,-100.00,NNE,15,12.0,20.0,95,0.00,,,0.00,,2013-05-03 08:52:00,
2013-05-03 04:01:00,30.0,28.0,-100.00,NNE,15,14.0,18.0,96,0.00,,,0.00,,2013-05-03 09:01:00,
2013-05-03 04:11:00,30.0,28.0,-100.00,North,10,13.0,17.0,96,0.00,,,0.00,,2013-05-03 09:11:00,
2013-05-03 04:21:00,30.0,28.0,-100.00,North,10,12.0,17.0,96,0.00,,,0.00,,2013-05-03 09:21:00,
2013-05-03 04:32:00,30.0,28.0,-100.00,North,0,12.0,17.0,96,0.00,,,0.00,,2013-05-03 09:32:00,
2013-05-03 04:42:00,30.0,28.0,-100.00,North,0,12.0,15.0,97,0.00,,,0.00,,2013-05-03 09:42:00,
2013-05-03 04:52:00,30.0,28.0,-100.00,North,0,11.0,16.0,97,0.00,,,0.00,,2013-05-03 09:52:00,
2013-05-03 05:02:00,29.0,28.0,-100.00,North,5,12.0,19.0,97,0.00,,,0.00,,2013-05-03 10:02:00,
2013-05-03 05:12:00,29.0,28.0,-100.00,North,10,11.0,16.0,97,0.00,,,0.00,,2013-05-03 10:12:00,
2013-05-03 05:22:00,29.0,28.0,-100.00,North,10,12.0,18.0,98,0.00,,,0.00,,2013-05-03 10:22:00,
2013-05-03 05:32:00,29.0,28.0,-100.00,North,0,13.0,18.0,98,0.00,,,0.00,,2013-05-03 10:32:00,
2013-05-03 05:42:00,29.0,28.0,-100.00,North,5,13.0,17.0,98,0.00,,,0.00,,2013-05-03 10:42:00,
2013-05-03 05:52:00,29.0,28.0,-100.00,North,0,12.0,16.0,99,0.00,,,0.00,,2013-05-03 10:52:00,
2013-05-03 07:42:00,28.0,28.0,-100.00,NNE,15,15.0,19.0,99,0.00,,,0.00,,2013-05-03 12:42:00,
2013-05-03 07:51:00,28.0,28.0,-100.00,NNE,15,14.0,19.0,99,0.00,,,0.00,,2013-05-03 12:51:00,
2013-05-03 08:01:00,29.0,28.0,-100.00,North,5,14.0,20.0,99,0.00,,,0.00,,2013-05-03 13:01:00,
2013-05-03 08:11:00,29.0,28.0,-100.00,North,10,15.0,23.0,99,0.00,,,0.00,,2013-05-03 13:11:00,
2013-05-03 08:42:00,31.0,30.0,-100.00,NNE,15,16.0,21.0,98,0.00,,,0.00,,2013-05-03 13:42:00,
2013-05-03 08:52:00,31.0,30.0,-100.00,NNE,15,17.0,21.0,98,0.00,,,0.00,,2013-05-03 13:52:00,
2013-05-03 09:11:00,32.0,30.0,-100.00,NNE,15,14.0,18.0,97,0.00,,,0.00,,2013-05-03 14:11:00,
2013-05-03 09:21:00,31.0,30.0,-100.00,NNE,15,16.0,20.0,97,0.00,,,0.00,,2013-05-03 14:21:00,
2013-05-03 09:52:00,32.0,32.0,-100.00,North,10,12.0,17.0,97,0.00,,,0.00,,2013-05-03 14:52:00,
2013-05-03 10:01:00,33.0,32.0,-100.00,NNE,15,14.0,17.0,96,0.00,,,0.00,,2013-05-03 15:01:00,
2013-05-03 10:11:00,33.0,32.0,-100.00,North,0,15.0,18.0,96,0.00,,,0.00,,2013-05-03 15:11:00,
2013-05-03 10:22:00,33.0,32.0,-100.00,North,0,16.0,21.0,96,0.00,,,0.00,,2013-05-03 15:22:00,
2013-05-03 10:32:00,33.0,32.0,-100.00,NNE,15,14.0,19.0,96,0.00,,,0.00,,2013-05-03 15:32:00,
2013-05-03 10:43:00,34.0,34.0,-100.00,North,0,12.0,18.0,95,0.00,,,0.00,,2013-05-03 15:43:00,
2013-05-03 10:53:00,35.0,34.0,-100.00,NNE,15,14.0,19.0,94,0.00,,,0.00,,2013-05-03 15:53:00,
2013-05-03 11:03:00,35.0,34.0,-100.00,North,0,12.0,19.0,93,0.00,,,0.00,,2013-05-03 16:03:00,
2013-05-03 11:12:00,35.0,34.0,-100.00,NNE,20,14.0,20.0,93,0.00,,,0.00,,2013-05-03 16:12:00,
2013-05-03 11:22:00,36.0,34.0,-100.00,North,5,16.0,22.0,92,0.00,,,0.00,,2013-05-03 16:22:00,
2013-05-03 11:32:00,36.0,34.0,-100.00,North,0,17.0,24.0,91,0.00,,,0.00,,2013-05-03 16:32:00,
2013-05-03 11:42:00,38.0,36.0,-100.00,North,10,17.0,24.0,91,0.00,,,0.00,,2013-05-03 16:42:00,
2013-05-03 11:52:00,38.0,36.0,-100.00,North,10,16.0,24.0,89,0.00,,,0.00,,2013-05-03 16:52:00,
2013-05-03 12:02:00,40.0,37.0,-100.00,NNE,15,20.0,27.0,89,0.00,,,0.00,,2013-05-03 17:02:00,
2013-05-03 12:12:00,39.0,36.0,-100.00,NNE,25,21.0,30.0,86,0.00,,,0.00,,2013-05-03 17:12:00,
2013-05-03 12:23:00,40.0,36.0,-100.00,NNE,15,22.0,29.0,84,0.00,,,0.00,,2013-05-03 17:23:00,
2013-05-03 12:32:00,40.0,36.0,-100.00,North,10,23.0,28.0,84,0.00,,,0.00,,2013-05-03 17:32:00,
2013-05-03 12:42:00,40.0,36.0,-100.00,NNE,25,22.0,30.0,84,0.00,,,0.00,,2013-05-03 17:42:00,
2013-05-03 12:51:00,41.0,37.0,-100.00,NNE,20,17.0,30.0,85,0.00,,,0.00,,2013-05-03 17:51:00,
2013-05-03 13:01:00,41.0,36.0,-100.00,North,10,17.0,24.0,83,0.00,,,0.00,,2013-05-03 18:01:00,
2013-05-03 13:12:00,41.0,36.0,-100.00,North,10,19.0,24.0,83,0.00,,,0.00,,2013-05-03 18:12:00,
2013-05-03 13:21:00,41.0,36.0,-100.00,NNE,25,21.0,27.0,82,0.00,,,0.00,,2013-05-03 18:21:00,
2013-05-03 13:32:00,41.0,36.0,-100.00,NNE,15,21.0,27.0,81,0.00,,,0.00,,2013-05-03 18:32:00,
2013-05-03 13:42:00,41.0,36.0,-100.00,NNE,25,23.0,29.0,80,0.00,,,0.00,,2013-05-03 18:42:00,
2013-05-03 13:51:00,41.0,36.0,-100.00,NNE,25,24.0,30.0,79,0.00,,,0.00,,2013-05-03 18:51:00,
2013-05-03 14:01:00,41.0,36.0,-100.00,NNE,20,22.0,30.0,80,0.00,,,0.00,,2013-05-03 19:01:00,
2013-05-03 14:11:00,41.0,36.0,-100.00,North,5,19.0,30.0,78,0.00,,,0.00,,2013-05-03 19:11:00,
2013-05-03 14:21:00,41.0,36.0,-100.00,North,0,17.0,27.0,79,0.00,,,0.00,,2013-05-03 19:21:00,
2013-05-03 14:32:00,41.0,34.0,-100.00,NNE,15,23.0,28.0,77,0.00,,,0.00,,2013-05-03 19:32:00,
2013-05-03 14:41:00,41.0,34.0,-100.00,NNE,15,23.0,29.0,76,0.00,,,0.00,,2013-05-03 19:41:00,
2013-05-03 14:52:00,41.0,34.0,-100.00,NNE,25,21.0,29.0,76,0.00,,,0.00,,2013-05-03 19:52:00,
2013-05-03 15:02:00,41.0,34.0,-100.00,NNE,20,18.0,28.0,76,0.00,,,0.00,,2013-05-03 20:02:00,
2013-05-03 15:11:00,41.0,34.0,-100.00,NNE,20,22.0,26.0,76,0.00,,,0.00,,2013-05-03 20:11:00,
2013-05-03 15:21:00,41.0,34.0,-100.00,NNE,15,17.0,23.0,76,0.00,,,0.00,,2013-05-03 20:21:00,
2013-05-03 15:31:00,41.0,34.0,-100.00,NNE,20,17.0,22.0,76,0.00,,,0.00,,2013-05-03 20:31:00,
2013-05-03 15:42:00,41.0,34.0,-100.00,NNE,15,19.0,24.0,75,0.00,,,0.00,,2013-05-03 20:42:00,
2013-05-03 15:52:00,41.0,34.0,-100.00,North,10,15.0,25.0,74,0.00,,,0.00,,2013-05-03 20:52:00,
2013-05-03 16:01:00,41.0,34.0,-100.00,NNE,20,17.0,24.0,74,0.00,,,0.00,,2013-05-03 21:01:00,
2013-05-03 16:11:00,41.0,34.0,-100.00,NNE,25,21.0,26.0,73,0.00,,,0.00,,2013-05-03 21:11:00,
2013-05-03 16:21:00,42.0,34.0,-100.00,NNE,15,18.0,26.0,73,0.00,,,0.00,,2013-05-03 21:21:00,
2013-05-03 16:33:00,42.0,36.0,-100.00,NNE,30,21.0,26.0,76,0.00,,,0.00,,2013-05-03 21:33:00,
2013-05-03 16:42:00,41.0,36.0,-100.00,NE,35,17.0,24.0,79,0.00,,,0.00,,2013-05-03 21:42:00,
2013-05-03 16:52:00,41.0,37.0,-100.00,NE,40,18.0,24.0,85,0.00,,,0.00,,2013-05-03 21:52:00,
2013-05-03 17:02:00,41.0,37.0,-100.00,NE,35,21.0,27.0,88,0.00,,,0.00,,2013-05-03 22:02:00,
2013-05-03 17:12:00,40.0,37.0,-100.00,NE,40,20.0,27.0,88,0.00,,,0.00,,2013-05-03 22:12:00,
2013-05-03 17:22:00,40.0,37.0,-100.00,NE,40,22.0,26.0,90,0.00,,,0.00,,2013-05-03 22:22:00,
2013-05-03 17:32:00,39.0,37.0,-100.00,NE,40,22.0,28.0,91,0.00,,,0.00,,2013-05-03 22:32:00,
2013-05-03 17:42:00,39.0,37.0,-100.00,NE,40,18.0,26.0,90,0.00,,,0.00,,2013-05-03 22:42:00,
2013-05-03 17:52:00,39.0,37.0,-100.00,NE,35,19.0,26.0,91,0.00,,,0.00,,2013-05-03 22:52:00,
2013-05-03 18:02:00,39.0,37.0,-100.00,NE,40,19.0,26.0,92,0.00,,,0.00,,2013-05-03 23:02:00,
2013-05-03 18:11:00,38.0,37.0,-100.00,NE,35,20.0,26.0,94,0.00,,,0.00,,2013-05-03 23:11:00,
2013-05-03 18:21:00,38.0,37.0,-100.00,NE,35,18.0,24.0,95,0.00,,,0.00,,2013-05-03 23:21:00,
2013-05-03 18:31:00,38.0,37.0,-100.00,NE,35,13.0,22.0,97,0.00,,,0.00,,2013-05-03 23:31:00,
2013-05-03 18:41:00,38.0,37.0,-100.00,NNE,30,18.0,24.0,97,0.00,,,0.00,,2013-05-03 23:41:00,
2013-05-03 18:51:00,38.0,37.0,-100.00,NNE,30,17.0,26.0,98,0.00,,,0.00,,2013-05-03 23:51:00,
2013-05-03 19:01:00,38.0,37.0,-100.00,NNE,30,14.0,22.0,99,0.00,,,0.00,,2013-05-04 00:01:00,
2013-05-03 19:11:00,37.0,37.0,-100.00,NNE,25,14.0,22.0,99,0.00,,,0.00,,2013-05-04 00:11:00,
2013-05-03 20:01:00,36.0,36.0,-100.00,NE,40,17.0,24.0,99,0.00,,,0.00,,2013-05-04 01:01:00,
2013-05-03 20:11:00,36.0,36.0,-100.00,NE,35,18.0,26.0,99,0.00,,,0.00,,2013-05-04 01:11:00,
2013-05-03 20:21:00,36.0,36.0,-100.00,NE,35,17.0,27.0,99,0.00,,,0.00,,2013-05-04 01:21:00,
2013-05-03 20:32:00,36.0,36.0,-100.00,NNE,30,14.0,21.0,99,0.00,,,0.00,,2013-05-04 01:32:00,
2013-05-03 20:41:00,36.0,36.0,-100.00,NNE,25,14.0,17.0,99,0.00,,,0.00,,2013-05-04 01:41:00,
2013-05-03 20:52:00,36.0,36.0,-100.00,NE,35,14.0,22.0,99,0.00,,,0.00,,2013-05-04 01:52:00,
2013-05-03 21:41:00,35.0,34.0,-100.00,NE,45,20.0,26.0,99,0.00,,,0.00,,2013-05-04 02:41:00,
2013-05-03 21:52:00,34.0,34.0,-100.00,NE,45,20.0,26.0,99,0.00,,,0.00,,2013-05-04 02:52:00,
2013-05-03 22:02:00,34.0,34.0,-100.00,NE,40,19.0,24.0,99,0.00,,,0.00,,2013-05-04 03:02:00,
2013-05-03 22:11:00,34.0,34.0,-100.00,NE,45,17.0,23.0,99,0.00,,,0.00,,2013-05-04 03:11:00,
2013-05-03 22:21:00,34.0,34.0,-100.00,NE,45,16.0,21.0,99,0.00,,,0.00,,2013-05-04 03:21:00,